London, United Kingdom

6:38 AM BST on April 28, 2017 (GMT +0100)
Heathrow

Weather History for EGLL - October, 2014

Change the Weather History Date:

Friday, October 3, 2014

  Actual Average Record
Temperature  
Mean Temperature 62 °F -  
Max Temperature 72 °F 57 °F 78 °F (2011)
Min Temperature 53 °F 45 °F 41 °F (2008)
Degree Days  
Heating Degree Days 2    
Growing Degree Days 12 (Base 50)    
Moisture  
Dew Point 55 °F    
Average Humidity 81    
Maximum Humidity 100    
Minimum Humidity 41    
Precipitation  
Precipitation 0.00 in - - ()
Sea Level Pressure  
Sea Level Pressure 30.18 in    
Wind  
Wind Speed 7 mph ()    
Max Wind Speed 13 mph    
Max Gust Speed 24 mph    
Visibility 5.4 miles    
Events Fog    
Averages and records for this station are not official NWS values.
T = Trace of Precipitation, MM = Missing Value Source: Averaged Metar Reports

Daily Weather History Graph

Daily Weather History Graph

Search for Another Location

Airport or City:

Trip Planner

Search our weather history database for the weather conditions in past years. The results will help you decide how hot, cold, wet, or windy it might be!

Date:

Astronomy

Oct. 03, 2014 Rise Set
Actual Time 7:05 AM BST 6:35 PM BST
Civil Twilight 6:32 AM BST 7:08 PM BST
Nautical Twilight 5:53 AM BST 7:47 PM BST
Astronomical Twilight 5:13 AM BST 8:26 PM BST
Moon 3:49 PM BST (10/3) 12:34 AM BST (10/3)
Length of Visible Light 12h 36m
Length of Day
11h 29m
Waxing Gibbous, 68% of the Moon is Illuminated
Oct 3
Waxing Gibbous
Oct 8
Full
Oct 15
Last Quarter
Oct 23
New
Oct 31
First Quarter

Hourly Weather History & Observations

Time (BST) Temp. Dew Point Humidity Pressure Visibility Wind Dir Wind Speed Gust Speed Precip Events Conditions
12:00 AM 58 °F 54 °F 84% 30.31 in 11 mi South 5.8 mph - -  
12:20 AM 57.2 °F 55.4 °F 94% 30.30 in - SSW 6.9 mph - N/A   Clear
12:50 AM 57.2 °F 55.4 °F 94% 30.30 in - SSW 5.8 mph - N/A   Clear
1:00 AM 57 °F 54 °F 86% 30.30 in 9 mi SSW 6.9 mph - -  
1:50 AM 55.4 °F 53.6 °F 94% 30.27 in 5.6 mi SSW 4.6 mph - N/A   Unknown
2:00 AM 56 °F 54 °F 89% 30.28 in 8 mi SSW 4.6 mph - -  
2:20 AM 55.4 °F 53.6 °F 94% 30.27 in 3.7 mi South 3.5 mph - N/A   Unknown
2:50 AM 55.4 °F 53.6 °F 94% 30.27 in 1.9 mi South 3.5 mph - N/A   Scattered Clouds
3:00 AM 55 °F 53 °F 92% 30.27 in 4 mi South 5.8 mph - -   Light Haze
3:20 AM 55.4 °F 53.6 °F 94% 30.27 in 0.3 mi SW 5.8 mph - N/A Fog Fog
3:50 AM 53.6 °F 53.6 °F 100% 30.27 in 0.2 mi WSW 4.6 mph - N/A Fog Fog
4:00 AM 54 °F 52 °F 92% 30.27 in 0 mi SW 4.6 mph - - Fog Fog
4:20 AM 53.6 °F 53.6 °F 100% 30.24 in 0.2 mi South 4.6 mph - N/A Fog Fog
4:50 AM 53.6 °F 53.6 °F 100% 30.24 in 0.2 mi SW 4.6 mph - N/A Fog Fog
5:00 AM 54 °F 53 °F 95% 30.27 in 0 mi SW 3.5 mph - - Fog Fog
5:20 AM 53.6 °F 53.6 °F 100% 30.24 in 0.2 mi SW 4.6 mph - N/A Fog Fog
5:50 AM 53.6 °F 53.6 °F 100% 30.24 in 0.1 mi Variable 3.5 mph - N/A Fog Fog
6:20 AM 53.6 °F 53.6 °F 100% 30.24 in 0.7 mi Variable 3.5 mph - N/A   Mostly Cloudy
6:50 AM 53.6 °F 53.6 °F 100% 30.24 in 1.1 mi Variable 4.6 mph - N/A   Mostly Cloudy
7:00 AM 54 °F 53 °F 96% 30.25 in 4 mi South 5.8 mph - - Fog Fog
7:20 AM 53.6 °F 53.6 °F 100% 30.24 in 0.2 mi South 5.8 mph - N/A Fog Fog
7:50 AM 53.6 °F 53.6 °F 100% 30.24 in 0.2 mi South 4.6 mph - N/A Fog Fog
8:20 AM 53.6 °F 53.6 °F 100% 30.24 in 0.2 mi Variable 3.5 mph - N/A Fog Fog
8:50 AM 55.4 °F 53.6 °F 94% 30.24 in 0.2 mi South 5.8 mph - N/A Fog Fog
9:00 AM 55 °F 54 °F 97% 30.25 in 1 mi South 6.9 mph - - Fog Fog
9:20 AM 55.4 °F 55.4 °F 100% 30.24 in 0.6 mi Variable 4.6 mph - N/A Fog Fog
9:50 AM 57.2 °F 55.4 °F 94% 30.24 in 1.1 mi SW 6.9 mph - N/A   Scattered Clouds
10:00 AM 56 °F 56 °F 100% 30.25 in 4 mi South 5.8 mph - - Fog Fog
10:20 AM 57.2 °F 57.2 °F 100% 30.24 in 1.7 mi SSW 6.9 mph - N/A   Scattered Clouds
10:50 AM 59.0 °F 57.2 °F 94% 30.24 in 3.7 mi SW 11.5 mph - N/A   Mostly Cloudy
11:00 AM 60 °F 58 °F 89% 30.24 in 10 mi SSW 10.4 mph - -   Overcast
11:20 AM 62.6 °F 57.2 °F 82% 30.21 in 6.2 mi SSW 11.5 mph - N/A   Scattered Clouds
11:50 AM 64.4 °F 57.2 °F 77% 30.21 in 6.2 mi SW 10.4 mph - N/A   Scattered Clouds
12:00 PM 65 °F 57 °F 68% 30.22 in 16 mi SSW 9.2 mph - -   Scattered Clouds
12:20 PM 66.2 °F 57.2 °F 73% 30.21 in 6.2 mi SSW 10.4 mph - N/A   Scattered Clouds
12:50 PM 68.0 °F 57.2 °F 68% 30.21 in 6.2 mi SSW 12.7 mph - N/A   Scattered Clouds
1:00 PM 69 °F 56 °F 53% 30.20 in 19 mi SSW 10.4 mph - -  
1:20 PM 68.0 °F 55.4 °F 64% 30.18 in 6.2 mi SW 9.2 mph - N/A   Partly Cloudy
1:50 PM 69.8 °F 55.4 °F 60% 30.18 in 6.2 mi SW 9.2 mph 20.7 mph N/A   Scattered Clouds
2:00 PM 69 °F 53 °F 47% 30.18 in 25 mi SW 8.1 mph - -   Scattered Clouds
2:20 PM 68.0 °F 53.6 °F 60% 30.15 in 6.2 mi SW 11.5 mph - N/A   Scattered Clouds
2:50 PM 69.8 °F 53.6 °F 56% 30.15 in 6.2 mi SW 11.5 mph - N/A   Scattered Clouds
3:00 PM 69 °F 53 °F 46% 30.16 in 28 mi SW 10.4 mph - -   Partly Cloudy
3:20 PM 69.8 °F 53.6 °F 56% 30.15 in 6.2 mi SW 12.7 mph - N/A   Scattered Clouds
3:50 PM 71.6 °F 53.6 °F 53% 30.12 in 6.2 mi SW 11.5 mph - N/A   Scattered Clouds
4:00 PM 71 °F 52 °F 41% 30.13 in 28 mi SW 11.5 mph - -  
4:20 PM 69.8 °F 53.6 °F 56% 30.12 in 6.2 mi SW 11.5 mph - N/A   Scattered Clouds
4:50 PM 69.8 °F 53.6 °F 56% 30.12 in 6.2 mi SW 12.7 mph - N/A   Scattered Clouds
5:00 PM 69 °F 52 °F 44% 30.12 in 19 mi SSW 12.7 mph - -   Scattered Clouds
5:20 PM 68.0 °F 53.6 °F 60% 30.09 in 6.2 mi SSW 12.7 mph 24.2 mph N/A   Scattered Clouds
5:50 PM 68.0 °F 53.6 °F 60% 30.09 in 6.2 mi SSW 12.7 mph - N/A   Partly Cloudy
6:00 PM 67 °F 52 °F 49% 30.11 in 19 mi SSW 11.5 mph - -  
6:20 PM 66.2 °F 55.4 °F 68% 30.09 in 6.2 mi SSW 10.4 mph - N/A   Partly Cloudy
6:50 PM 64.4 °F 55.4 °F 73% 30.09 in 6.2 mi SSW 10.4 mph - N/A   Partly Cloudy
7:00 PM 65 °F 53 °F 57% 30.10 in 22 mi South 9.2 mph - -  
7:20 PM 62.6 °F 55.4 °F 77% 30.09 in - SSW 9.2 mph - N/A   Clear
7:50 PM 62.6 °F 55.4 °F 77% 30.09 in - SSW 10.4 mph - N/A   Clear
8:00 PM 62 °F 55 °F 73% 30.10 in 17 mi South 9.2 mph - -   Scattered Clouds
8:20 PM 60.8 °F 57.2 °F 88% 30.09 in - South 11.5 mph - N/A   Clear
8:50 PM 60.8 °F 57.2 °F 88% 30.09 in - South 10.4 mph - N/A   Clear
9:00 PM 61 °F 56 °F 77% 30.09 in 11 mi South 11.5 mph - -  
9:20 PM 59.0 °F 55.4 °F 88% 30.06 in - South 11.5 mph - N/A   Clear
9:50 PM 59.0 °F 55.4 °F 88% 30.06 in - South 9.2 mph - N/A   Clear
10:00 PM 59 °F 55 °F 84% 30.07 in 8 mi South 8.1 mph - -   Partly Cloudy
10:20 PM 59.0 °F 55.4 °F 88% 30.06 in - South 9.2 mph - N/A   Clear
10:50 PM 59.0 °F 55.4 °F 88% 30.04 in 5.0 mi South 6.9 mph - N/A   Partly Cloudy
11:00 PM 59 °F 56 °F 85% 30.05 in 7 mi SSW 5.8 mph - -   Partly Cloudy
11:20 PM 59.0 °F 57.2 °F 94% 30.04 in 4.3 mi South 5.8 mph - N/A   Scattered Clouds
11:50 PM 59.0 °F 57.2 °F 94% 30.04 in 4.3 mi South 8.1 mph - N/A   Mostly Cloudy